NOAA 16 DEB, 41071

Orbit data source: Space-Track

NOAA 16 DEB, 41071 is space debris in SSO originally from a launch on Thu, 21 Sep 2000 UTC launched from the Air Force Western Test Range (AFWTR). Debris objects in space refer to the collection of defunct objects orbiting the Earth. Examples of debris include non-operational satellites, rocket bodies, and fragments generated from explosions, collisions, or faulty payload assembly.

Loading next visibility...
Identifier
41071, 2000-055AE
Orbit
SSO
Country
Flag of USUS
Related business
Manufacturer
Unknown
Mission
Spacecraft
Bus & Motor
Unknown
Mass
Unknown
Launch date (UTC)
2000-09-21 (25 years ago)
Launch vehicle
Unknown
Launch site
Air Force Western Test Range (AFWTR)
Object type
Payload
Rocket body
Debris
Shape & HBR
Unknown shape, 0.2 m
Radar Cross Section
Small (<0.1 m²)

Expand to show TLE details & history
Last TLE update: 16 hours ago

TLE from 16 hours ago
0 NOAA 16 DEB
1 41071U 00055AE  25310.56043435  .00006206  00000-0  25183-2 0  9999
2 41071  98.8179  51.4373 0009479 273.2354  86.7742 14.27973469514089
Epoch: 2025-11-06T13:27Z
TLE epoch observation values (Epoch: 2025-11-06T13:27:01.527Z)
Latitude
-0.00004°
Longitude
163.66395°
Altitude
801.058 km
Speed
7.453 km/s
True Right ascension
03h 25m 44s
True Declination
0° 00' 00"
Sunlit
Object was in full shadow at epoch
Visualization orbit readout
Latitude
Unknown
Longitude
Unknown
Altitude
Unknown
Speed
Unknown
Apparent Right ascension
Unknown
Apparent Declination
Unknown
Sunlit
N/A
Visualization observer readout
Local Sidereal Time
01:27:26
Azimuth
Unknown
Elevation
Unknown
Doppler factor
Unknown
Orbital elements
Apogee altitude
802.466 km
Perigee altitude
788.866 km
Semi-major axis
7,173.803 km
Eccentricity
0.00095
Inclination
98.8179°
RAAN
51.4373°
Arg. of periapsis
273.2354°
True anomaly
86.88266°
Mean anomaly
86.7742°
Eccentric anomaly
86.82843°
Mean motion
3.57206 °/min
Orbital period
100.78 mins
BSTAR
0.0025183
Loading maneuver chart data...
Computing Atmospheric mass density...
Loading historical data...
Loading historical data...
Loading historical data...
Loading historical data...
Loading historical data...
Loading historical data...
Loading historical data...

Documentation

Showing up to 5 results
|